Tracking 23610 objects as of 19-Sep-2021
HD Live streaming from Space Station
objects crossing your sky now

LINGQIAO VIDEO A

Track LINGQIAO VIDEO A now!
10-day predictions


NORAD ID: 40959
Int'l Code: 2015-057B
Perigee: 643.9 km
Apogee: 671.0 km
Inclination: 97.8 °
Period: 97.7 minutes
Semi major axis: 7028 km
RCS: Unknown
Launch date: October 7, 2015
Source: People's Republic of China (PRC)
Launch site: Jiuquan Satellite Launch Center, China (JSC)

LINGQIAO VIDEO A is a Chinese satellite designed for video capture.
aabbcc
Your satellite tracking list
Your tracking list is empty




NASA's NSSDC Master Catalog

Two Line Element Set (TLE):
1 40959U 15057B   21261.69326826  .00000070  00000-0  18194-4 0  9993
2 40959  97.7950 315.1583 0019327 114.6978 245.6236 14.73375356320018
Source of the keplerian elements: AFSPC